Weather Roundup
Issued by NWS

Home | Current Version | Previous Version | Text Only | Print | Product List | Glossary On
Versions: 1 2 3 4 5 6 7 8 9 10 11 12 13 14 15 16 17 18 19 20 21 22 23 24 25 26 27 28 29 30 31 32 33 34 35 36 37 38 39 40 41 42 43 44 45 46 47 48 49 50
000
NZUS93 KARX 201659
HRRWXR

CURRENT HOURLY OBSERVATIONS ACROSS
MUCH OF THE UPPER MISSISSIPPI VALLEY
NATIONAL WEATHER SERVICE LA CROSSE WI
1200 PM CDT MON OCT 20 2014


...SOUTHEAST MINNESOTA...


CITY           SKY/WX    TMP DP  RH WIND       PRES   REMARKS
ROCHESTER      SUNNY     59  44  57 N13       30.00S
ROCHESTER/MAYO FAIR      57  40  51 NW9G16    29.99S
WINONA         SUNNY     59  43  55 NW13      29.97S
AUSTIN         SUNNY     59  43  55 N16       29.99S
ALBERT LEA     SUNNY     61  43  51 NW7       30.01S
DODGE CENTER   SUNNY     59  45  58 NW14G20   29.99S
PRESTON        SUNNY     57  44  62 N9G17     29.99S
OWATONNA       SUNNY     61  43  51 NW9G16    30.01S
FARIBAULT      SUNNY     61  43  51 NW9       30.01S
$$

...ELSEWHERE IN MINNESOTA...


CITY           SKY/WX    TMP DP  RH WIND       PRES   REMARKS
MINNEAPOLIS    MOSUNNY   59  43  55 NW12      30.00S
INTNL FALLS    CLOUDY    46  36  68 N12       30.03R
DULUTH         CLOUDY    48  41  76 NW8       29.98S
RED WING       MOSUNNY   61  43  51 NW13G20   29.97S
REDWOOD FALLS  SUNNY     62  42  47 N7        30.04F
MANKATO        SUNNY     59  41  51 NW13      30.02F
WORTHINGTON    SUNNY     63  39  42 N12       30.08S
FAIRMONT       SUNNY     63  37  39 N13       30.04S
$$

...SOUTHWEST WISCONSIN...


CITY           SKY/WX    TMP DP  RH WIND       PRES   REMARKS
LA CROSSE      MOSUNNY   61  45  55 NW12      29.95R
PRAIRIE DU CHI SUNNY     60  42  51 NW7       29.95F
BOSCOBEL       MOSUNNY   64  44  48 NW8G23    29.94F
LONE ROCK      NOT AVBL
PLATTEVILLE    SUNNY     60  45  57 NW17      29.93F
FORT MC COY    NOT AVBL
VIROQUA        FAIR      58  44  58 N13G18    29.94S
WIS DELLS      CLOUDY    56  41  56 NW8       29.91S
$$

...ELSEWHERE IN WISCONSIN...


CITY           SKY/WX    TMP DP  RH WIND       PRES   REMARKS
MILWAUKEE      MOSUNNY   59  46  62 NW12      29.85S
MADISON        MOSUNNY   59  41  51 NW16G26   29.90R
GREEN BAY      CLOUDY    52  45  77 NW9       29.87R
EAU CLAIRE     NOT AVBL
BLACK RVR FLS  PTSUNNY   58  40  49 NW10G17   29.93S
MEDFORD        CLOUDY    50  42  73 N13       29.92S
WAUSAU         CLOUDY    51  42  71 N9        29.90R
WIS RAPIDS     MOSUNNY   56  41  57 NW15G22   29.93S
MARSHFIELD     PTSUNNY   53  42  66 NW16      29.92R
RICE LAKE      CLOUDY    53  40  61 NW10G17   29.98S
$$

...NORTHEAST IOWA...


CITY           SKY/WX    TMP DP  RH WIND       PRES   REMARKS
DECORAH        SUNNY     61  45  55 NW8       29.96F
MASON CITY     SUNNY     63  43  48 N16G22    30.02F
CHARLES CITY   SUNNY     61  45  55 NW10G18   30.00S
OELWEIN        SUNNY     61  45  55 NW15      29.98F
$$

...ELSEWHERE IN IOWA...


CITY           SKY/WX    TMP DP  RH WIND       PRES   REMARKS
DES MOINES     SUNNY     66  43  43 NW12      30.04F
IOWA CITY      SUNNY     62  46  55 NW14      30.00S
FORT DODGE     SUNNY     64  43  45 NW8       30.06S
$$

...NORTHERN ILLINOIS...


CITY           SKY/WX    TMP DP  RH WIND       PRES   REMARKS
CHICAGO-OHARE  MOSUNNY   60  46  59 NW8       29.85S
CHICAGO-MIDWAY MOSUNNY   61  48  62 NW8       29.85S
MOLINE         SUNNY     63  44  50 N16G22    29.95R
ROCKFORD       MOSUNNY   63  46  54 N13       29.91R
PEORIA           N/A     65  32  29 NW10G21   29.93R
$$

NOTE: "FAIR" INDICATES FEW OR NO CLOUDS BELOW 12,000 FEET WITH NO
SIGNIFICANT WEATHER AND/OR OBSTRUCTIONS TO VISIBILITY. WIND
SPEEDS ARE IN MILES-PER-HOUR.



USA.gov is the U.S. government's official web portal to all federal, state and local government web resources and services.